Time,TemperatureF,DewpointF,PressureIn,WindDirection,WindDirectionDegrees,WindSpeedMPH,WindSpeedGustMPH,Humidity,HourlyPrecipIn,Conditions,Clouds,dailyrainin,SoftwareType,DateUTC
2013-01-08 00:02:00,70.0,-99.9,-100.00,East,80,14.0,21.0,-999,0.00,,,-99.99,,2013-01-08 10:02:00,
2013-01-08 00:33:00,70.0,-99.9,-100.00,East,80,14.0,21.0,-999,0.00,,,-99.99,,2013-01-08 10:33:00,
2013-01-08 00:43:00,70.0,-99.9,-100.00,East,80,14.0,21.0,-999,0.00,,,-99.99,,2013-01-08 10:43:00,
2013-01-08 00:53:00,70.0,-99.9,-100.00,East,80,14.0,21.0,-999,0.00,,,-99.99,,2013-01-08 10:53:00,
2013-01-08 01:02:00,70.0,-99.9,-100.00,ENE,70,14.0,22.0,-999,0.00,,,-99.99,,2013-01-08 11:02:00,
2013-01-08 01:33:00,70.0,-99.9,-100.00,ENE,70,14.0,22.0,-999,0.00,,,-99.99,,2013-01-08 11:33:00,
2013-01-08 01:43:00,70.0,-99.9,-100.00,ENE,70,14.0,22.0,-999,0.00,,,-99.99,,2013-01-08 11:43:00,
2013-01-08 01:53:00,70.0,-99.9,-100.00,ENE,70,14.0,22.0,-999,0.00,,,-99.99,,2013-01-08 11:53:00,
2013-01-08 02:02:00,70.0,-99.9,-100.00,ENE,67,12.0,18.0,-999,0.00,,,-99.99,,2013-01-08 12:02:00,
2013-01-08 02:33:00,70.0,-99.9,-100.00,ENE,67,12.0,18.0,-999,0.00,,,-99.99,,2013-01-08 12:33:00,
2013-01-08 02:43:00,70.0,-99.9,-100.00,ENE,67,12.0,18.0,-999,0.00,,,-99.99,,2013-01-08 12:43:00,
2013-01-08 02:53:00,70.0,-99.9,-100.00,ENE,67,12.0,18.0,-999,0.00,,,-99.99,,2013-01-08 12:53:00,
2013-01-08 03:02:00,70.0,-99.9,-100.00,ENE,77,10.0,20.0,-999,0.00,,,-99.99,,2013-01-08 13:02:00,
2013-01-08 03:33:00,70.0,-99.9,-100.00,ENE,77,10.0,20.0,-999,0.00,,,-99.99,,2013-01-08 13:33:00,
2013-01-08 03:43:00,70.0,-99.9,-100.00,ENE,77,10.0,20.0,-999,0.00,,,-99.99,,2013-01-08 13:43:00,
2013-01-08 03:53:00,70.0,-99.9,-100.00,ENE,77,10.0,20.0,-999,0.00,,,-99.99,,2013-01-08 13:53:00,
2013-01-08 04:02:00,70.0,-99.9,-100.00,ENE,68,10.0,16.0,-999,0.00,,,-99.99,,2013-01-08 14:02:00,
2013-01-08 04:33:00,70.0,-99.9,-100.00,ENE,68,10.0,16.0,-999,0.00,,,-99.99,,2013-01-08 14:33:00,
2013-01-08 04:44:00,70.0,-99.9,-100.00,ENE,68,10.0,16.0,-999,0.00,,,-99.99,,2013-01-08 14:44:00,
2013-01-08 04:53:00,70.0,-99.9,-100.00,ENE,68,10.0,16.0,-999,0.00,,,-99.99,,2013-01-08 14:53:00,
2013-01-08 05:02:00,70.0,-99.9,-100.00,ENE,67,10.0,14.0,-999,0.00,,,-99.99,,2013-01-08 15:02:00,
2013-01-08 05:33:00,70.0,-99.9,-100.00,ENE,67,10.0,14.0,-999,0.00,,,-99.99,,2013-01-08 15:33:00,
2013-01-08 05:43:00,70.0,-99.9,-100.00,ENE,67,10.0,14.0,-999,0.00,,,-99.99,,2013-01-08 15:43:00,
2013-01-08 05:53:00,70.0,-99.9,-100.00,ENE,67,10.0,14.0,-999,0.00,,,-99.99,,2013-01-08 15:53:00,
2013-01-08 06:02:00,70.0,-99.9,-100.00,East,86,12.0,17.0,-999,0.00,,,-99.99,,2013-01-08 16:02:00,
2013-01-08 06:34:00,70.0,-99.9,-100.00,East,86,12.0,17.0,-999,0.00,,,-99.99,,2013-01-08 16:34:00,
2013-01-08 06:43:00,70.0,-99.9,-100.00,East,86,12.0,17.0,-999,0.00,,,-99.99,,2013-01-08 16:43:00,
2013-01-08 06:53:00,70.0,-99.9,-100.00,East,86,12.0,17.0,-999,0.00,,,-99.99,,2013-01-08 16:53:00,
2013-01-08 07:02:00,71.0,-99.9,-100.00,ENE,74,13.0,20.0,-999,0.00,,,-99.99,,2013-01-08 17:02:00,
2013-01-08 07:34:00,71.0,-99.9,-100.00,ENE,74,13.0,20.0,-999,0.00,,,-99.99,,2013-01-08 17:34:00,
2013-01-08 07:43:00,71.0,-99.9,-100.00,ENE,74,13.0,20.0,-999,0.00,,,-99.99,,2013-01-08 17:43:00,
2013-01-08 07:54:00,71.0,-99.9,-100.00,ENE,74,13.0,20.0,-999,0.00,,,-99.99,,2013-01-08 17:54:00,
2013-01-08 08:02:00,71.0,-99.9,-100.00,East,87,12.0,18.0,-999,0.00,,,-99.99,,2013-01-08 18:02:00,
2013-01-08 08:34:00,71.0,-99.9,-100.00,East,87,12.0,18.0,-999,0.00,,,-99.99,,2013-01-08 18:34:00,
2013-01-08 08:43:00,71.0,-99.9,-100.00,East,87,12.0,18.0,-999,0.00,,,-99.99,,2013-01-08 18:43:00,
2013-01-08 08:53:00,71.0,-99.9,-100.00,East,87,12.0,18.0,-999,0.00,,,-99.99,,2013-01-08 18:53:00,
2013-01-08 09:02:00,72.0,-99.9,-100.00,ENE,72,12.0,17.0,-999,0.00,,,-99.99,,2013-01-08 19:02:00,
2013-01-08 09:33:00,72.0,-99.9,-100.00,ENE,72,12.0,17.0,-999,0.00,,,-99.99,,2013-01-08 19:33:00,
2013-01-08 09:43:00,72.0,-99.9,-100.00,ENE,72,12.0,17.0,-999,0.00,,,-99.99,,2013-01-08 19:43:00,
2013-01-08 09:53:00,72.0,-99.9,-100.00,ENE,72,12.0,17.0,-999,0.00,,,-99.99,,2013-01-08 19:53:00,
2013-01-08 10:02:00,73.0,-99.9,-100.00,ENE,69,14.0,20.0,-999,0.01,,,-99.99,,2013-01-08 20:02:00,
2013-01-08 10:33:00,73.0,-99.9,-100.00,ENE,69,14.0,20.0,-999,0.01,,,-99.99,,2013-01-08 20:33:00,
2013-01-08 10:43:00,73.0,-99.9,-100.00,ENE,69,14.0,20.0,-999,0.01,,,-99.99,,2013-01-08 20:43:00,
2013-01-08 10:54:00,73.0,-99.9,-100.00,ENE,69,14.0,20.0,-999,0.01,,,-99.99,,2013-01-08 20:54:00,
2013-01-08 11:02:00,74.0,-99.9,-100.00,ENE,69,14.0,22.0,-999,0.00,,,-99.99,,2013-01-08 21:02:00,
2013-01-08 11:34:00,74.0,-99.9,-100.00,ENE,69,14.0,22.0,-999,0.00,,,-99.99,,2013-01-08 21:34:00,
2013-01-08 11:43:00,74.0,-99.9,-100.00,ENE,69,14.0,22.0,-999,0.00,,,-99.99,,2013-01-08 21:43:00,
2013-01-08 11:53:00,74.0,-99.9,-100.00,ENE,69,14.0,22.0,-999,0.00,,,-99.99,,2013-01-08 21:53:00,
2013-01-08 12:02:00,78.0,-99.9,-100.00,East,82,16.0,24.0,-999,0.00,,,-99.99,,2013-01-08 22:02:00,
2013-01-08 12:33:00,78.0,-99.9,-100.00,East,82,16.0,24.0,-999,0.00,,,-99.99,,2013-01-08 22:33:00,
2013-01-08 12:43:00,78.0,-99.9,-100.00,East,82,16.0,24.0,-999,0.00,,,-99.99,,2013-01-08 22:43:00,
2013-01-08 12:53:00,78.0,-99.9,-100.00,East,82,16.0,24.0,-999,0.00,,,-99.99,,2013-01-08 22:53:00,
2013-01-08 13:02:00,75.0,-99.9,-100.00,East,81,17.0,27.0,-999,0.00,,,-99.99,,2013-01-08 23:02:00,
2013-01-08 13:33:00,75.0,-99.9,-100.00,East,81,17.0,27.0,-999,0.00,,,-99.99,,2013-01-08 23:33:00,
2013-01-08 13:43:00,75.0,-99.9,-100.00,East,81,17.0,27.0,-999,0.00,,,-99.99,,2013-01-08 23:43:00,
2013-01-08 13:53:00,75.0,-99.9,-100.00,East,81,17.0,27.0,-999,0.00,,,-99.99,,2013-01-08 23:53:00,
2013-01-08 14:02:00,77.0,-99.9,-100.00,East,81,16.0,24.0,-999,0.00,,,-99.99,,2013-01-09 00:02:00,
2013-01-08 14:33:00,77.0,-99.9,-100.00,East,81,16.0,24.0,-999,0.00,,,-99.99,,2013-01-09 00:33:00,
2013-01-08 14:43:00,77.0,-99.9,-100.00,East,81,16.0,24.0,-999,0.00,,,-99.99,,2013-01-09 00:43:00,
2013-01-08 14:53:00,77.0,-99.9,-100.00,East,81,16.0,24.0,-999,0.00,,,-99.99,,2013-01-09 00:53:00,
2013-01-08 15:02:00,78.0,-99.9,-100.00,East,84,16.0,24.0,-999,0.00,,,-99.99,,2013-01-09 01:02:00,
2013-01-08 15:33:00,78.0,-99.9,-100.00,East,84,16.0,24.0,-999,0.00,,,-99.99,,2013-01-09 01:33:00,
2013-01-08 15:43:00,78.0,-99.9,-100.00,East,84,16.0,24.0,-999,0.00,,,-99.99,,2013-01-09 01:43:00,
2013-01-08 15:53:00,78.0,-99.9,-100.00,East,84,16.0,24.0,-999,0.00,,,-99.99,,2013-01-09 01:53:00,
2013-01-08 16:02:00,76.0,-99.9,-100.00,East,81,16.0,25.0,-999,0.00,,,-99.99,,2013-01-09 02:02:00,
2013-01-08 16:33:00,76.0,-99.9,-100.00,East,81,16.0,25.0,-999,0.00,,,-99.99,,2013-01-09 02:33:00,
2013-01-08 16:43:00,76.0,-99.9,-100.00,East,81,16.0,25.0,-999,0.00,,,-99.99,,2013-01-09 02:43:00,
2013-01-08 16:53:00,76.0,-99.9,-100.00,East,81,16.0,25.0,-999,0.00,,,-99.99,,2013-01-09 02:53:00,
2013-01-08 17:02:00,75.0,-99.9,-100.00,ENE,77,20.0,27.0,-999,0.00,,,-99.99,,2013-01-09 03:02:00,
2013-01-08 17:33:00,75.0,-99.9,-100.00,ENE,77,20.0,27.0,-999,0.00,,,-99.99,,2013-01-09 03:33:00,
2013-01-08 17:43:00,75.0,-99.9,-100.00,ENE,77,20.0,27.0,-999,0.00,,,-99.99,,2013-01-09 03:43:00,
2013-01-08 17:53:00,75.0,-99.9,-100.00,ENE,77,20.0,27.0,-999,0.00,,,-99.99,,2013-01-09 03:53:00,
2013-01-08 18:02:00,74.0,-99.9,-100.00,East,79,17.0,24.0,-999,0.00,,,-99.99,,2013-01-09 04:02:00,
2013-01-08 18:33:00,74.0,-99.9,-100.00,East,79,17.0,24.0,-999,0.00,,,-99.99,,2013-01-09 04:33:00,
2013-01-08 18:43:00,74.0,-99.9,-100.00,East,79,17.0,24.0,-999,0.00,,,-99.99,,2013-01-09 04:43:00,
2013-01-08 18:53:00,74.0,-99.9,-100.00,East,79,17.0,24.0,-999,0.00,,,-99.99,,2013-01-09 04:53:00,
2013-01-08 19:02:00,71.0,-99.9,-100.00,East,79,16.0,27.0,-999,0.00,,,-99.99,,2013-01-09 05:02:00,
2013-01-08 19:33:00,71.0,-99.9,-100.00,East,79,16.0,27.0,-999,0.00,,,-99.99,,2013-01-09 05:33:00,
2013-01-08 19:43:00,71.0,-99.9,-100.00,East,79,16.0,27.0,-999,0.00,,,-99.99,,2013-01-09 05:43:00,
2013-01-08 19:53:00,71.0,-99.9,-100.00,East,79,16.0,27.0,-999,0.00,,,-99.99,,2013-01-09 05:53:00,
2013-01-08 20:02:00,71.0,-99.9,-100.00,East,80,15.0,21.0,-999,0.00,,,-99.99,,2013-01-09 06:02:00,
2013-01-08 20:32:00,71.0,-99.9,-100.00,East,80,15.0,21.0,-999,0.00,,,-99.99,,2013-01-09 06:32:00,
2013-01-08 20:43:00,71.0,-99.9,-100.00,East,80,15.0,21.0,-999,0.00,,,-99.99,,2013-01-09 06:43:00,
2013-01-08 20:53:00,71.0,-99.9,-100.00,East,80,15.0,21.0,-999,0.00,,,-99.99,,2013-01-09 06:53:00,
2013-01-08 21:02:00,70.0,-99.9,-100.00,East,79,16.0,27.0,-999,0.00,,,-99.99,,2013-01-09 07:02:00,
2013-01-08 21:32:00,70.0,-99.9,-100.00,East,79,16.0,27.0,-999,0.00,,,-99.99,,2013-01-09 07:32:00,
2013-01-08 21:43:00,70.0,-99.9,-100.00,East,79,16.0,27.0,-999,0.00,,,-99.99,,2013-01-09 07:43:00,
2013-01-08 21:53:00,70.0,-99.9,-100.00,East,79,16.0,27.0,-999,0.00,,,-99.99,,2013-01-09 07:53:00,
2013-01-08 22:02:00,70.0,-99.9,-100.00,ENE,75,15.0,22.0,-999,0.00,,,-99.99,,2013-01-09 08:02:00,
2013-01-08 22:33:00,70.0,-99.9,-100.00,ENE,75,15.0,22.0,-999,0.00,,,-99.99,,2013-01-09 08:33:00,
2013-01-08 22:43:00,70.0,-99.9,-100.00,ENE,75,15.0,22.0,-999,0.00,,,-99.99,,2013-01-09 08:43:00,
2013-01-08 22:53:00,70.0,-99.9,-100.00,ENE,75,15.0,22.0,-999,0.00,,,-99.99,,2013-01-09 08:53:00,
2013-01-08 23:02:00,70.0,-99.9,-100.00,ENE,72,15.0,23.0,-999,0.01,,,-99.99,,2013-01-09 09:02:00,
2013-01-08 23:32:00,70.0,-99.9,-100.00,ENE,72,15.0,23.0,-999,0.01,,,-99.99,,2013-01-09 09:32:00,
2013-01-08 23:42:00,70.0,-99.9,-100.00,ENE,72,15.0,23.0,-999,0.01,,,-99.99,,2013-01-09 09:42:00,
2013-01-08 23:54:00,70.0,-99.9,-100.00,ENE,72,15.0,23.0,-999,0.01,,,-99.99,,2013-01-09 09:54:00,